Regional Weather Roundup
Issued by NWS

Home | Current Version | Previous Version | Text Only | Print | Product List | Glossary Off
Versions: 1 2 3 4 5 6 7 8 9 10 11 12 13 14 15 16 17 18 19 20 21 22 23 24 25 26 27 28

000
ASUS45 KCYS 191210
RWRWY

WYOMING REGIONAL WEATHER ROUNDUP
NATIONAL WEATHER SERVICE CHEYENNE WY
600 AM MDT TUE SEP 19 2017

NOTE:  "FAIR" INDICATES FEW OR NO CLOUDS BELOW 12,000 FEET
WITH NO SIGNIFICANT WEATHER AND/OR OBSTRUCTIONS TO VISIBILITY.

WYZ001-191300-
YELLOWSTONE NATIONAL PARK

CITY           SKY/WX    TMP DP  RH WIND       PRES   REMARKS
LK YELLOWSTONE   N/A     32  32 100 VRB3      29.75R
6HR MIN TEMP:  32; 6HR MAX TEMP:  38; 6HR PCP:  0.35;

W YELLOWSTONE  NOT AVBL

$$
WYZ002>013-054>058-071-098>099-191300-
NORTHERN WYOMING

CITY           SKY/WX    TMP DP  RH WIND       PRES   REMARKS
JACKSON        CLOUDY    39  36  89 S16G22    29.77S WCI  30
CODY           FAIR      46  42  86 CALM      29.65S
GREYBULL       NOT AVBL
WORLAND        FAIR      52  49  89 SE15      29.56F
6HR MIN TEMP:  51; 6HR MAX TEMP:  60; 6HR PCP:  0.13;

SHERIDAN       CLOUDY    54  44  69 NW6       29.58R
6HR MIN TEMP:  54; 6HR MAX TEMP:  64; 6HR PCP: TRACE;

BUFFALO        CLOUDY    52  41  66 S12       29.61F
6HR MIN TEMP:  52; 6HR MAX TEMP:  65; 6HR PCP: TRACE;

GILLETTE       FAIR      51  44  77 CALM      29.60S
6HR MIN TEMP:  50; 6HR MAX TEMP:  65;

HULETT         FAIR      55  39  54 CALM      29.61F
NEWCASTLE      FAIR      61  36  39 SE16G26   29.60S

$$
WYZ014>020-022>026-101>103-191300-
CENTRAL WYOMING

CITY           SKY/WX    TMP DP  RH WIND       PRES   REMARKS
BIG PINEY      LGT RAIN  43  42  97 CALM      29.79R
6HR MIN TEMP:  42; 6HR MAX TEMP:  46; 6HR PCP:  0.23;

PINEDALE       CLOUDY    41  41 100 S8        29.79S
DUBOIS         DRIZZLE   37  34  87 W16G22    29.72F WCI  28
LANDER           N/A    N/A N/A N/A MISG      29.67F
RIVERTON       LGT RAIN  47  46  97 SE10      29.67F
6HR MIN TEMP:  47; 6HR MAX TEMP:  55; 6HR PCP:  0.12;

CASPER         FAIR      52  40  63 W15       29.69R
6HR MIN TEMP:  52; 6HR MAX TEMP:  65;

DOUGLAS        FAIR      59  35  40 NW12      29.66R
6HR MIN TEMP:  55; 6HR MAX TEMP:  67;


$$
WYZ021-027>030-104>119-191300-
SOUTHERN WYOMING

CITY           SKY/WX    TMP DP  RH WIND       PRES   REMARKS
EVANSTON       LGT RAIN  45  43  93 SW16      29.83S
6HR MIN TEMP:  45; 6HR MAX TEMP:  50;

KEMMERER       RAIN      43  41  93 SW16      29.81F
FORT BRIDGER   FAIR      46  45  97 SW10      29.84S
ROCK SPRINGS   CLOUDY    47  37  68 SW8       29.82F
6HR MIN TEMP:  47; 6HR MAX TEMP:  60;

DIXON          FAIR      62  20  20 S17G26    29.83F
RAWLINS        FAIR      56  30  37 W21G31    29.78R
6HR MIN TEMP:  56; 6HR MAX TEMP:  62;

SARATOGA       FAIR      61  21  21 SW20G36   29.80F
LARAMIE        FAIR      55  20  25 S9        29.82R
6HR MIN TEMP:  48; 6HR MAX TEMP:  56;

CHEYENNE       FAIR      50  30  46 W10       29.78R
6HR MIN TEMP:  45; 6HR MAX TEMP:  57;

TORRINGTON     FAIR      52  47  83 E9        29.65F
6HR MIN TEMP:  52; 6HR MAX TEMP:  62;

PINE BLUFFS    FAIR      45  39  81 MISG      29.74S

$$




USA.gov is the U.S. government's official web portal to all federal, state and local government web resources and services.